Galax, VA

5:57 AM EST on December 17, 2017 (GMT -0500)
Twin County

Weather History for KHLX - November, 2011

Change the Weather History Date:

Wednesday, November 23, 2011

  Actual Average (KBLF) Record (KBLF)
Temperature  
Mean Temperature 51 °F -  
Max Temperature 60 °F 52 °F 67 °F (2003)
Min Temperature 42 °F 33 °F 9 °F (1970)
Degree Days  
Heating Degree Days 14    
Growing Degree Days 1 (Base 50)    
Moisture  
Dew Point 45 °F    
Average Humidity 80    
Maximum Humidity 100    
Minimum Humidity 61    
Precipitation  
Precipitation 0.02 in - - ()
Sea Level Pressure  
Sea Level Pressure 29.95 in    
Wind  
Wind Speed 14 mph (WNW)    
Max Wind Speed 33 mph    
Max Gust Speed 45 mph    
Visibility 10 miles    
Events Rain    
Averages and records for this station are not official NWS values.
T = Trace of Precipitation, MM = Missing Value Source: NWS Daily Summary

Daily Weather History Graph

Daily Weather History Graph

Search for Another Location

Airport or City:

Trip Planner

Search our weather history database for the weather conditions in past years. The results will help you decide how hot, cold, wet, or windy it might be!

Date:

Astronomy

Nov. 23, 2011 Rise Set
Actual Time 7:09 AM EST 5:09 PM EST
Civil Twilight 6:41 AM EST 5:37 PM EST
Nautical Twilight 6:09 AM EST 6:09 PM EST
Astronomical Twilight 5:38 AM EST 6:40 PM EST
Moon 5:13 AM EST (11/23) 3:49 PM EST (11/23)
Length of Visible Light 10h 56m
Length of Day
10h 00m
Waning Crescent, 4% of the Moon is Illuminated
Nov 23
Waning Crescent
Nov 25
New
Dec 2
First Quarter
Dec 10
Full
Dec 17
Last Quarter

Hourly Weather History & Observations

Time (EST) Temp. Windchill Dew Point Humidity Pressure Visibility Wind Dir Wind Speed Gust Speed Precip Events Conditions
12:15 AM 60.8 °F - 59.0 °F 94% 29.88 in 10.0 mi SSW 8.1 mph - 0.08 in Rain Light Rain
12:35 AM 60.8 °F - 59.0 °F 94% 29.89 in 10.0 mi SW 8.1 mph - 0.08 in   Overcast
12:55 AM 60.8 °F - 59.0 °F 94% 29.87 in 10.0 mi SW 5.8 mph - 0.01 in Rain Light Rain
1:15 AM 59.0 °F - 59.0 °F 100% 29.87 in 10.0 mi SW 6.9 mph - 0.01 in   Scattered Clouds
1:35 AM 59.0 °F - 59.0 °F 100% 29.86 in 10.0 mi WSW 6.9 mph - 0.01 in   Scattered Clouds
1:55 AM 59.0 °F - 57.2 °F 94% 29.85 in 10.0 mi WSW 6.9 mph - N/A   Scattered Clouds
2:15 AM 59.0 °F - 57.2 °F 94% 29.85 in 10.0 mi WSW 5.8 mph - N/A   Scattered Clouds
2:35 AM 59.0 °F - 57.2 °F 94% 29.85 in 10.0 mi WSW 15.0 mph 24.2 mph N/A   Scattered Clouds
2:55 AM 59.0 °F - 55.4 °F 88% 29.84 in 10.0 mi West 12.7 mph 21.9 mph N/A   Scattered Clouds
3:35 AM 59.0 °F - 55.4 °F 88% 29.83 in 10.0 mi West 8.1 mph - N/A   Clear
3:55 AM 57.2 °F - 53.6 °F 88% 29.82 in 10.0 mi WNW 11.5 mph - N/A   Clear
4:15 AM 57.2 °F - 53.6 °F 88% 29.82 in 10.0 mi West 8.1 mph 16.1 mph N/A   Clear
4:35 AM 57.2 °F - 53.6 °F 88% 29.82 in 10.0 mi West 4.6 mph - N/A   Clear
4:55 AM 57.2 °F - 53.6 °F 88% 29.82 in 10.0 mi SSW 4.6 mph - N/A   Clear
5:15 AM 57.2 °F - 53.6 °F 88% 29.82 in 10.0 mi WSW 5.8 mph - N/A   Scattered Clouds
5:35 AM 57.2 °F - 53.6 °F 88% 29.82 in 10.0 mi Calm Calm - N/A   Clear
5:55 AM 57.2 °F - 53.6 °F 88% 29.82 in 10.0 mi West 6.9 mph - N/A   Mostly Cloudy
6:15 AM 57.2 °F - 53.6 °F 88% 29.83 in 10.0 mi WSW 5.8 mph - N/A   Overcast
6:35 AM 57.2 °F - 53.6 °F 88% 29.84 in 10.0 mi West 12.7 mph 23.0 mph N/A   Overcast
7:15 AM 57.2 °F - 53.6 °F 88% 29.85 in 10.0 mi West 12.7 mph 24.2 mph N/A   Mostly Cloudy
7:35 AM 57.2 °F - 51.8 °F 82% 29.86 in 10.0 mi West 15.0 mph 24.2 mph N/A   Overcast
7:55 AM 55.4 °F - 51.8 °F 88% 29.87 in 10.0 mi West 15.0 mph 26.5 mph N/A   Mostly Cloudy
8:35 AM 53.6 °F - 50.0 °F 88% 29.88 in 7.0 mi WNW 25.3 mph 34.5 mph N/A Rain Light Rain
8:55 AM 53.6 °F - 48.2 °F 82% 29.88 in 10.0 mi WNW 23.0 mph 31.1 mph N/A   Mostly Cloudy
9:15 AM 51.8 °F - 46.4 °F 82% 29.88 in 10.0 mi WNW 27.6 mph 44.9 mph N/A   Scattered Clouds
9:35 AM 51.8 °F - 44.6 °F 76% 29.89 in 10.0 mi WNW 29.9 mph 39.1 mph N/A   Scattered Clouds
9:55 AM 50.0 °F - 44.6 °F 82% 29.91 in 10.0 mi WNW 24.2 mph 34.5 mph N/A   Mostly Cloudy
10:15 AM 48.2 °F - 44.6 °F 87% 29.91 in 10.0 mi WNW 23.0 mph 32.2 mph N/A   Overcast
10:35 AM 48.2 °F - 42.8 °F 82% 29.92 in 10.0 mi NW 26.5 mph 38.0 mph N/A   Overcast
10:55 AM 48.2 °F - 41.0 °F 76% 29.92 in 10.0 mi WNW 19.6 mph 32.2 mph N/A   Overcast
11:15 AM 48.2 °F - 41.0 °F 76% 29.93 in 10.0 mi WNW 17.3 mph 32.2 mph N/A   Mostly Cloudy
11:35 AM 48.2 °F - 41.0 °F 76% 29.93 in 10.0 mi WNW 29.9 mph 36.8 mph N/A   Overcast
11:55 AM 48.2 °F - 41.0 °F 76% 29.93 in 10.0 mi NW 26.5 mph 39.1 mph N/A   Mostly Cloudy
12:15 PM 48.2 °F - 39.2 °F 71% 29.93 in 10.0 mi WNW 27.6 mph 38.0 mph N/A   Scattered Clouds
12:35 PM 48.2 °F - 39.2 °F 71% 29.94 in 10.0 mi NW 27.6 mph 42.6 mph N/A   Mostly Cloudy
12:55 PM 46.4 °F 38.1 °F 39.2 °F 76% 29.95 in 10.0 mi NW 24.2 mph 35.7 mph N/A   Overcast
1:15 PM 46.4 °F 37.9 °F 39.2 °F 76% 29.96 in 10.0 mi NW 25.3 mph 36.8 mph N/A   Overcast
1:35 PM 46.4 °F 38.3 °F 39.2 °F 76% 29.97 in 10.0 mi NW 23.0 mph 39.1 mph N/A   Overcast
1:55 PM 46.4 °F 36.7 °F 39.2 °F 76% 29.97 in 10.0 mi NW 33.4 mph 39.1 mph N/A   Overcast
2:15 PM 44.6 °F 34.9 °F 39.2 °F 81% 29.99 in 10.0 mi NW 28.8 mph 39.1 mph N/A   Overcast
2:35 PM 46.4 °F 38.3 °F 39.2 °F 76% 30.01 in 10.0 mi NW 23.0 mph 33.4 mph N/A   Overcast
2:55 PM 44.6 °F 35.7 °F 37.4 °F 76% 30.01 in 10.0 mi NW 24.2 mph 34.5 mph N/A   Mostly Cloudy
3:15 PM 46.4 °F 38.5 °F 37.4 °F 71% 30.02 in 10.0 mi NW 21.9 mph 35.7 mph N/A   Scattered Clouds
3:55 PM 44.6 °F 35.7 °F 35.6 °F 71% 30.02 in 10.0 mi NW 24.2 mph 34.5 mph N/A   Scattered Clouds
4:15 PM 44.6 °F 36.1 °F 35.6 °F 71% 30.03 in 10.0 mi NW 21.9 mph 28.8 mph N/A   Scattered Clouds
4:35 PM 44.6 °F 37.8 °F 35.6 °F 71% 30.04 in 10.0 mi NW 15.0 mph 28.8 mph N/A   Clear
4:55 PM 44.6 °F 36.9 °F 35.6 °F 71% 30.05 in 10.0 mi NW 18.4 mph 27.6 mph N/A   Scattered Clouds
5:15 PM 44.6 °F 37.2 °F 35.6 °F 71% 30.06 in 10.0 mi NNW 17.3 mph 27.6 mph N/A   Clear
5:35 PM 44.6 °F 37.2 °F 35.6 °F 71% 30.07 in 10.0 mi NW 17.3 mph 27.6 mph N/A   Clear
5:55 PM 44.6 °F 36.9 °F 35.6 °F 71% 30.08 in 10.0 mi NNW 18.4 mph 31.1 mph N/A   Clear
6:15 PM 44.6 °F 36.6 °F 35.6 °F 71% 30.09 in 10.0 mi NW 19.6 mph 26.5 mph N/A   Clear
6:35 PM 44.6 °F 36.4 °F 35.6 °F 71% 30.10 in 10.0 mi NNW 20.7 mph 31.1 mph N/A   Clear
6:55 PM 44.6 °F 36.1 °F 35.6 °F 71% 30.10 in 10.0 mi NNW 21.9 mph 33.4 mph N/A   Clear
7:15 PM 44.6 °F 35.9 °F 35.6 °F 71% 30.11 in 10.0 mi NNW 23.0 mph 33.4 mph N/A   Clear
7:55 PM 44.6 °F 35.5 °F 33.8 °F 66% 30.12 in 10.0 mi NNW 25.3 mph 34.5 mph N/A   Clear
8:15 PM 44.6 °F 36.1 °F 33.8 °F 66% 30.13 in 10.0 mi NNW 21.9 mph 31.1 mph N/A   Clear
8:35 PM 44.6 °F 36.4 °F 33.8 °F 66% 30.14 in 10.0 mi NNW 20.7 mph 29.9 mph N/A   Clear
8:55 PM 42.8 °F 34.8 °F 33.8 °F 70% 30.15 in 10.0 mi NNW 17.3 mph 23.0 mph N/A   Clear
9:35 PM 42.8 °F 34.5 °F 30.2 °F 61% 30.16 in 10.0 mi NNW 18.4 mph 24.2 mph N/A   Clear
10:15 PM 42.8 °F 35.4 °F 30.2 °F 61% 30.18 in 10.0 mi NNW 15.0 mph 28.8 mph N/A   Clear
10:35 PM 42.8 °F 35.8 °F 30.2 °F 61% 30.18 in 10.0 mi NNW 13.8 mph 25.3 mph N/A   Clear
10:55 PM 42.8 °F 35.4 °F 32.0 °F 66% 30.18 in 10.0 mi NNW 15.0 mph 20.7 mph N/A   Clear
11:15 PM 42.8 °F 34.8 °F 30.2 °F 61% 30.18 in 10.0 mi NNW 17.3 mph 23.0 mph N/A   Clear
11:35 PM 42.8 °F 35.4 °F 32.0 °F 66% 30.20 in 10.0 mi NNW 15.0 mph - N/A   Clear
11:55 PM 41.0 °F 33.1 °F 32.0 °F 70% 30.20 in 10.0 mi NNW 15.0 mph 18.4 mph N/A   Clear